Stations météo

Publicité
Fehmarnbelt/Grosstonne, Allemagne (10043): Température de l'air & dewpoint: 12.01.2018 14:00:00 - 18.01.2018 14:00:00 (CET)Fehmarnbelt/Grosstonne, Allemagne (10043): water temperature: 12.01.2018 14:00:00 - 18.01.2018 14:00:00 (CET)Fehmarnbelt/Grosstonne, Allemagne (10043): reduced air pressure: 12.01.2018 14:00:00 - 18.01.2018 14:00:00 (CET)
Date & Time tt [°C] td [°C] tw [°C] ppp [hPa]
18.01.2018 14:00:00 1,4 0,9 3,9 983,3
18.01.2018 13:00:00 1,5 1,0 3,9 983,5
18.01.2018 12:00:00 2,2 1,5 3,9 985,0
18.01.2018 11:00:00 2,4 1,5 4,0 986,5
18.01.2018 10:00:00 2,7 1,5 4,0 988,1
18.01.2018 09:00:00 2,5 1,2 4,0 990,1
18.01.2018 08:00:00 2,7 1,4 4,0 991,7
18.01.2018 07:00:00 2,7 1,4 4,0 993,1
18.01.2018 06:00:00 3,0 1,2 4,0 994,3
18.01.2018 05:00:00 2,7 1,2 4,0 995,0
18.01.2018 04:00:00 2,7 1,2 4,1 995,8
18.01.2018 03:00:00 2,9 1,5 4,1 996,3
18.01.2018 02:00:00 3,2 1,5 4,1 996,4
18.01.2018 01:00:00 3,2 2,0 4,1 996,8
18.01.2018 00:00:00 3,2 1,5 4,1 996,7
17.01.2018 23:00:00 3,4 1,2 4,0 996,3
17.01.2018 22:00:00 3,2 1,2 4,1 995,9
17.01.2018 21:00:00 3,2 1,0 3,8 995,5
17.01.2018 20:00:00 2,7 0,9 3,8 995,0
17.01.2018 19:00:00 3,0 0,7 4,0 994,3
17.01.2018 18:00:00 3,0 0,7 4,1 993,7
17.01.2018 17:00:00 3,4 0,9 4,1 993,1
17.01.2018 16:00:00 3,2 1,0 4,2 992,3
17.01.2018 15:00:00 3,0 0,7 4,2 991,4
17.01.2018 14:00:00 3,2 0,5 4,2 990,7
17.01.2018 13:00:00 2,9 1,0 4,3 990,2
17.01.2018 12:00:00 3,0 1,0 4,2 989,3
17.01.2018 11:00:00 2,9 1,0 4,2 989,1
17.01.2018 10:00:00 2,5 0,5 4,2 988,6
17.01.2018 09:00:00 2,7 0,7 4,2 987,9
17.01.2018 08:00:00 2,5 0,5 4,2 987,2
17.01.2018 07:00:00 2,5 0,4 4,2 986,5
17.01.2018 06:00:00 2,5 0,5 4,3 986,0
17.01.2018 05:00:00 2,5 0,5 4,3 986,1
17.01.2018 04:00:00 2,5 1,0 4,3 986,1
17.01.2018 03:00:00 2,5 1,0 4,3 986,2
17.01.2018 02:00:00 2,7 0,9 4,4 986,4
17.01.2018 01:00:00 2,7 1,2 4,4 986,5
17.01.2018 00:00:00 2,5 1,4 4,4 986,3
16.01.2018 23:00:00 2,7 1,5 4,4 986,5
16.01.2018 22:00:00 2,9 1,4 4,4 986,2
16.01.2018 21:00:00 2,7 1,4 4,4 986,1
16.01.2018 20:00:00 2,7 1,4 4,4 986,0
16.01.2018 19:00:00 2,9 1,4 4,4 985,7
16.01.2018 18:00:00 3,2 1,5 4,4 985,5
16.01.2018 17:00:00 3,7 1,5 4,4 985,3
16.01.2018 16:00:00 4,0 2,4 4,4 984,8
16.01.2018 15:00:00 4,0 2,0 4,4 984,7
16.01.2018 14:00:00 4,5 2,2 4,4 984,6
16.01.2018 13:00:00 4,5 2,0 4,4 984,8
16.01.2018 12:00:00 4,2 2,5 4,4 985,3
16.01.2018 11:00:00 4,2 2,5 4,4 985,5
16.01.2018 10:00:00 4,2 3,0 4,4 985,4
16.01.2018 09:00:00 3,0 2,5 4,4 985,4
16.01.2018 08:00:00 4,4 2,5 4,4 984,9
16.01.2018 07:00:00 4,4 2,5 4,4 984,8
16.01.2018 06:00:00 4,7 3,4 4,4 984,6
16.01.2018 05:00:00 4,7 3,5 4,4 984,5
16.01.2018 04:00:00 3,7 3,2 4,4 984,6
16.01.2018 03:00:00 3,2 2,4 4,4 984,6
16.01.2018 02:00:00 2,5 2,0 4,4 985,3
16.01.2018 01:00:00 3,0 2,0 4,4 986,9
16.01.2018 00:00:00 3,2 1,9 4,4 988,6
15.01.2018 23:00:00 3,2 1,5 4,4 990,7
15.01.2018 22:00:00 3,4 1,2 4,5 992,5
15.01.2018 21:00:00 3,0 1,4 4,5 994,4
15.01.2018 20:00:00 3,5 1,0 4,5 996,2
15.01.2018 19:00:00 3,0 1,4 4,5 997,9
15.01.2018 18:00:00 3,2 0,2 4,6 999,7
15.01.2018 17:00:00 3,2 0,4 4,6 1001,0
15.01.2018 16:00:00 2,9 -0,1 4,5 1002,7
15.01.2018 15:00:00 2,5 -0,5 4,5 1004,3
15.01.2018 14:00:00 2,2 -1,1 4,5 1006,1
15.01.2018 13:00:00 2,0 -1,1 4,5 1007,4
15.01.2018 12:00:00 1,5 -1,6 4,5 1009,2
15.01.2018 11:00:00 1,4 -1,8 4,4 1010,8
15.01.2018 10:00:00 1,5 -2,0 4,3 1012,1
15.01.2018 09:00:00 1,2 -1,8 4,5 1013,5
15.01.2018 08:00:00 1,0 -2,1 4,4 1014,6
15.01.2018 07:00:00 1,0 -2,0 4,3 1015,8
15.01.2018 06:00:00 1,0 -1,8 4,3 1016,9
15.01.2018 05:00:00 0,9 -2,1 4,4 1018,3
15.01.2018 04:00:00 0,5 -2,3 4,5 1019,2
15.01.2018 03:00:00 0,4 -2,5 4,6 1019,9
15.01.2018 02:00:00 0,0 -2,3 4,4 1021,3
15.01.2018 01:00:00 0,0 -2,5 4,2 1022,5
15.01.2018 00:00:00 -0,3 -3,0 4,2 1023,8
14.01.2018 23:00:00 -0,5 -3,0 4,2 1024,7
14.01.2018 22:00:00 -0,5 -3,1 4,4 1025,5
14.01.2018 21:00:00 -0,1 -2,8 4,2 1025,7
14.01.2018 20:00:00 -0,1 -3,0 4,1 1026,3
14.01.2018 19:00:00 -0,3 -3,5 4,0 1026,2
14.01.2018 18:00:00 -0,3 -3,5 4,0 1026,7
14.01.2018 17:00:00 0,0 -3,5 4,4 1027,4
14.01.2018 16:00:00 0,5 -2,8 3,8 1027,6
14.01.2018 15:00:00 0,5 -3,0 3,8 1028,0
14.01.2018 14:00:00 0,7 -3,1 3,9 1028,4
14.01.2018 13:00:00 0,7 -3,0 3,9 1028,7
14.01.2018 12:00:00 0,7 -3,3 3,9 1029,3
14.01.2018 11:00:00 0,7 -3,3 3,9 1029,8
14.01.2018 10:00:00 0,7 -3,3 3,8 1029,8
14.01.2018 09:00:00 0,9 -3,6 3,8 1029,7
14.01.2018 08:00:00 1,0 -4,6 3,8 1029,7
14.01.2018 07:00:00 1,0 -3,8 3,9 1029,8
14.01.2018 06:00:00 0,9 -4,8 3,9 1030,1
14.01.2018 05:00:00 0,7 -4,0 4,3 1030,1
14.01.2018 04:00:00 0,7 -4,3 4,5 1030,5
14.01.2018 03:00:00 0,9 -4,3 4,2 1030,6
14.01.2018 02:00:00 1,0 -3,8 4,2 1030,8
14.01.2018 01:00:00 0,7 -4,8 4,2 1031,3
14.01.2018 00:00:00 0,7 -4,5 4,2 1031,6
13.01.2018 23:00:00 0,7 -4,8 4,4 1031,7
13.01.2018 22:00:00 0,5 -4,6 4,4 1031,8
13.01.2018 21:00:00 0,2 -4,6 4,5 1032,1
13.01.2018 20:00:00 0,0 -4,3 4,6 1032,2
13.01.2018 19:00:00 0,0 -4,1 4,7 1032,3
13.01.2018 18:00:00 0,2 -4,1 4,8 1032,1
13.01.2018 17:00:00 1,0 -3,0 4,8 1032,6
13.01.2018 16:00:00 1,0 -2,5 4,8 1032,3
13.01.2018 15:00:00 1,5 -1,8 4,8 1032,2
13.01.2018 14:00:00 1,7 -1,5 4,9 1032,3
13.01.2018 13:00:00 1,9 -1,0 4,9 1032,5
13.01.2018 12:00:00 1,2 0,0 4,8 1032,8
13.01.2018 11:00:00 1,7 -0,8 4,7 1032,7
13.01.2018 10:00:00 2,0 0,2 4,8 1032,6
13.01.2018 09:00:00 1,7 -0,1 4,8 1032,3
13.01.2018 08:00:00 1,5 -0,5 4,8 1031,9
13.01.2018 07:00:00 1,5 -0,3 4,8 1031,9
13.01.2018 06:00:00 1,7 0,2 4,9 1031,9
13.01.2018 05:00:00 2,2 0,5 4,8 1032,0
13.01.2018 04:00:00 2,0 0,5 4,9 1032,1
13.01.2018 03:00:00 2,4 0,5 4,9 1032,2
13.01.2018 02:00:00 2,4 0,2 4,9 1032,2
13.01.2018 01:00:00 2,4 0,2 4,9 1032,1
13.01.2018 00:00:00 2,7 0,0 4,9 1032,3
12.01.2018 23:00:00 2,9 0,0 4,9 1032,2
12.01.2018 22:00:00 3,0 -0,1 4,9 1032,3
12.01.2018 21:00:00 3,2 0,0 4,8 1032,0
12.01.2018 20:00:00 3,5 1,0 4,7 1031,8
12.01.2018 19:00:00 3,5 1,0 4,7 1031,6
12.01.2018 18:00:00 3,7 1,0 4,7 1031,6
12.01.2018 17:00:00 4,0 0,7 4,8 1031,3
12.01.2018 16:00:00 3,7 -0,5 4,9 1031,0
12.01.2018 15:00:00 3,5 -1,0 4,9 1031,0
12.01.2018 14:00:00 3,2 -0,5 4,9 1030,6

tt = Température de l'air
td = dewpoint
tw = water temperature
ppp = reduced air pressure

stations d'obs. à proximité